Location: Unspecified
(57.6483°N, 3.3184°W)
Time: 18:17:13
(UTC+01:00)

N. Korean satellite - Pass Details

Date: 04 March 2021
Orbit: 452 x 499 km, 97.2° (Epoch: 20 April)

Event Time Altitude Azimuth Distance (km) Brightness Sun altitude
Rises 04:53:36 0° 24° (NNE) 2,522 10.8 -17.5°
Reaches altitude 10° 04:56:02 10° 41° (NE) 1,648 10.1 -17.1°
Maximum altitude 04:58:46 21° 92° (E) 1,130 9.3 -16.8°
Drops below altitude 10° 05:01:32 10° 143° (SE) 1,659 9.5 -16.4°
Sets 05:03:59 0° 160° (SSE) 2,543 10.3 -16.1°
